Weather Roundup
Issued by NWS Corpus Christi, TX

Home | Current Version | Previous Version | Text Only | Print | Product List | Glossary On
Versions: 1 2 3 4 5 6 7 8 9 10 11 12 13 14 15 16 17 18 19 20 21 22 23 24 25 26 27 28 29 30 31 32 33 34 35 36 37 38 39 40 41 42 43 44 45 46 47 48 49 50
000
ASUS44 KCRP 061810
HRRCRP

SOUTH TEXAS REGIONAL WEATHER ROUNDUP
NATIONAL WEATHER SERVICE CORPUS CHRISTI TX
1200 PM CST TUE DEC 06 2016


TXZ229>244-061900-
...CORPUS CHRISTI AREA OBSERVATIONS...

CITY           SKY/WX    TMP DP  RH WIND       PRES   REMARKS
CORPUS CHRISTI MOSUNNY   69  61  75 SW9       29.93F
NAS CORPUS CHR MOSUNNY   71  59  65 SW7       29.92F
ROCKPORT         N/A    N/A N/A N/A MISG      29.93F
KINGSVILLE NAS SUNNY     76  57  51 SW3       29.93F
ALICE          SUNNY     75  53  46 VRB3      29.93F
ORANGE GROVE   SUNNY     77  50  38 NW8       29.93F
FALFURRIAS     SUNNY     76  53  44 SW3       29.93F
$$

...VICTORIA AREA OBSERVATIONS...

CITY           SKY/WX    TMP DP  RH WIND       PRES   REMARKS
VICTORIA       SUNNY     67  55  65 W8        29.93F
BEEVILLE       FAIR      71  55  56 W7        29.94F
PLEASANTON     SUNNY     71  46  39 NW8       29.95F
SAN ANTONIO    SUNNY     65  44  46 NW12      29.96R
$$

...LAREDO AREA OBSERVATIONS...

CITY           SKY/WX    TMP DP  RH WIND       PRES   REMARKS
LAREDO         SUNNY     71  53  52 SW3       29.94F
COTULLA        SUNNY     76  42  29 N9        29.95F
DEL RIO        SUNNY     62  42  47 NW14      29.99F
MCALLEN        SUNNY     79  57  46 S7        29.94F
HEBBRONVILLE   SUNNY     78  41  26 CALM      29.94F
$$

...OTHER TEXAS OBSERVATIONS...

CITY           SKY/WX    TMP DP  RH WIND       PRES   REMARKS
BROWNSVILLE    SUNNY     76  63  64 S15       29.95F
HOUSTON        MOSUNNY   66  51  58 W7        29.90F
COL. STATION   PTSUNNY   61  50  67 NW9G20    29.94R
AUSTIN         PTSUNNY   57  47  69 NW17G23   29.98R
WACO           CLOUDY    53  50  89 N12       29.98S
FORT WORTH     CLOUDY    52  43  71 N14       29.99S
WICHITA FALLS  PTSUNNY   44  27  51 N15       30.09S
LUBBOCK        MOSUNNY   40  14  34 N9        30.10S
EL PASO        CLOUDY    55  34  45 S6        30.01F
$$

...MARINE OBSERVATIONS...

STATION/POSITION TIME  SKY/WX   TEMP    WIND        PRES    VSBY  WAVE   SWELL
                                AIR SEA DIR/SP/G                  HT/PER HT/PER
                 (UTC)          (F)     (DEG/KT/KT) (MB)    (MI)  (FT/S) (FT/S)
PORT ARANSAS     1700            65 63  200/  8/  8 1014.2R
BUOY 90 E PORT A 1650            73 77  220/ 14/ 16 1014.1          3/ 4   2/ 7
BUOY 45 SE BAFFI 1650            71 76  210/ 17/ 21 1014.1          3/ 4   2/ 8
BUOY 200 E PT IS 1650            74 78  270/  4/  6 1015.7          4/ 6   3/ 6
BUOY 15 E GALVES 1650            65 67  240/  6/  8 1013.9          2/ 5   2/ 5
$$




USA.gov is the U.S. government's official web portal to all federal, state and local government web resources and services.